Previsão horária em Al Jadid

Hoje, 15 Junho, Terça-feira

Tempo Temperatura Precipitação Vento Pressão Humidade
00:00 +23°C° 0 mm 4 m/s 761 mmHg 76%
01:00 +22°C° 0 mm 4 m/s 761 mmHg 77%
02:00 +22°C° 0 mm 3 m/s 761 mmHg 78%
03:00 +22°C° 0 mm 3 m/s 761 mmHg 78%
04:00 +22°C° 0 mm 3 m/s 760 mmHg 79%
05:00 +23°C° 0 mm 2 m/s 761 mmHg 74%
06:00 +24°C° 0 mm 2 m/s 761 mmHg 69%
07:00 +25°C° 0 mm 1 m/s 761 mmHg 64%
08:00 +26°C° 0 mm 2 m/s 761 mmHg 56%
09:00 +28°C° 0 mm 2 m/s 761 mmHg 49%
10:00 +29°C° 0 mm 2 m/s 761 mmHg 41%
11:00 +30°C° 0 mm 3 m/s 761 mmHg 40%
12:00 +30°C° 0 mm 4 m/s 761 mmHg 39%
13:00 +32°C° 0 mm 6 m/s 760 mmHg 39%
14:00 +30°C° 0 mm 6 m/s 760 mmHg 41%
15:00 +30°C° 0 mm 7 m/s 760 mmHg 43%
16:00 +29°C° 0 mm 7 m/s 760 mmHg 45%
17:00 +28°C° 0 mm 7 m/s 760 mmHg 49%
18:00 +27°C° 0 mm 7 m/s 760 mmHg 54%
19:00 +26°C° 0 mm 7 m/s 760 mmHg 59%
20:00 +26°C° 0 mm 6 m/s 760 mmHg 59%
21:00 +26°C° 0 mm 6 m/s 761 mmHg 60%
22:00 +26°C° 0 mm 6 m/s 761 mmHg 60%
23:00 +25°C° 0 mm 5 m/s 761 mmHg 60%

Amanhã, 16 Junho, Quarta-feira

Tempo Temperatura Precipitação Vento Pressão Humidade
00:00 +25°C° 0 mm 5 m/s 761 mmHg 61%
01:00 +23°C° 0 mm 4 m/s 760 mmHg 61%
02:00 +23°C° 0 mm 4 m/s 760 mmHg 61%
03:00 +24°C° 0 mm 3 m/s 760 mmHg 61%
04:00 +22°C° 0 mm 3 m/s 760 mmHg 60%
05:00 +24°C° 0 mm 3 m/s 761 mmHg 56%
06:00 +25°C° 0 mm 3 m/s 761 mmHg 52%
07:00 +26°C° 0 mm 3 m/s 761 mmHg 47%
08:00 +27°C° 0 mm 2 m/s 761 mmHg 43%
09:00 +28°C° 0 mm 1 m/s 761 mmHg 39%
10:00 +29°C° 0 mm 1 m/s 761 mmHg 35%
11:00 +30°C° 0 mm 2 m/s 761 mmHg 33%
12:00 +31°C° 0 mm 3 m/s 761 mmHg 32%
13:00 +33°C° 0 mm 5 m/s 761 mmHg 31%
14:00 +32°C° 0 mm 5 m/s 761 mmHg 35%
15:00 +30°C° 0 mm 6 m/s 761 mmHg 39%
16:00 +29°C° 0 mm 7 m/s 761 mmHg 43%
17:00 +28°C° 0 mm 7 m/s 761 mmHg 47%
18:00 +27°C° 0 mm 7 m/s 761 mmHg 51%
19:00 +26°C° 0 mm 6 m/s 761 mmHg 56%
20:00 +26°C° 0 mm 6 m/s 761 mmHg 53%
21:00 +26°C° 0 mm 5 m/s 761 mmHg 50%
22:00 +26°C° 0 mm 5 m/s 761 mmHg 47%
23:00 +25°C° 0 mm 4 m/s 761 mmHg 46%

Depois de amanhã, 17 Junho, Quinta-feira

Tempo Temperatura Precipitação Vento Pressão Humidade
00:00 +25°C° 0 mm 4 m/s 761 mmHg 45%
01:00 +25°C° 0 mm 3 m/s 761 mmHg 44%
02:00 +24°C° 0 mm 3 m/s 761 mmHg 48%
03:00 +24°C° 0 mm 3 m/s 761 mmHg 52%
04:00 +22°C° 0 mm 3 m/s 760 mmHg 56%
05:00 +24°C° 0 mm 3 m/s 761 mmHg 52%
06:00 +25°C° 0 mm 3 m/s 761 mmHg 47%
07:00 +26°C° 0 mm 3 m/s 762 mmHg 43%
08:00 +28°C° 0 mm 3 m/s 762 mmHg 38%
09:00 +30°C° 0 mm 2 m/s 762 mmHg 33%
10:00 +32°C° 0 mm 1 m/s 762 mmHg 29%
11:00 +33°C° 0 mm 3 m/s 762 mmHg 28%
12:00 +34°C° 0 mm 4 m/s 761 mmHg 27%
13:00 +34°C° 0 mm 6 m/s 761 mmHg 27%
14:00 +34°C° 0 mm 6 m/s 761 mmHg 29%
15:00 +33°C° 0 mm 6 m/s 761 mmHg 31%
16:00 +32°C° 0 mm 7 m/s 761 mmHg 33%
17:00 +29°C° 0 mm 6 m/s 761 mmHg 42%
18:00 +28°C° 0 mm 6 m/s 761 mmHg 51%
19:00 +26°C° 0 mm 6 m/s 761 mmHg 60%
20:00 +26°C° 0 mm 5 m/s 761 mmHg 60%
21:00 +26°C° 0 mm 5 m/s 761 mmHg 60%
22:00 +26°C° 0 mm 4 m/s 762 mmHg 60%
23:00 +25°C° 0 mm 4 m/s 761 mmHg 58%

18 Junho, Sexta-feira

Tempo Temperatura Precipitação Vento Pressão Humidade
00:00 +25°C° 0 mm 4 m/s 761 mmHg 57%
01:00 +25°C° 0 mm 4 m/s 761 mmHg 56%
02:00 +23°C° 0 mm 4 m/s 761 mmHg 56%
03:00 +23°C° 0 mm 4 m/s 761 mmHg 56%
04:00 +22°C° 0 mm 4 m/s 760 mmHg 56%
05:00 +23°C° 0 mm 4 m/s 761 mmHg 53%
06:00 +25°C° 0 mm 4 m/s 761 mmHg 49%
07:00 +26°C° 0 mm 4 m/s 761 mmHg 46%
08:00 +28°C° 0 mm 3 m/s 761 mmHg 41%
09:00 +30°C° 0 mm 3 m/s 761 mmHg 36%
10:00 +31°C° 0 mm 3 m/s 761 mmHg 31%
11:00 +33°C° 0 mm 4 m/s 761 mmHg 30%
12:00 +34°C° 0 mm 6 m/s 761 mmHg 30%
13:00 +34°C° 0 mm 7 m/s 760 mmHg 30%
14:00 +33°C° 0 mm 8 m/s 760 mmHg 33%
15:00 +33°C° 0 mm 9 m/s 760 mmHg 37%
16:00 +32°C° 0 mm 9 m/s 760 mmHg 41%
17:00 +31°C° 0 mm 9 m/s 760 mmHg 43%
18:00 +29°C° 0 mm 9 m/s 760 mmHg 46%
19:00 +28°C° 0 mm 9 m/s 760 mmHg 49%
20:00 +27°C° 0 mm 8 m/s 760 mmHg 48%
21:00 +27°C° 0 mm 8 m/s 761 mmHg 48%
22:00 +27°C° 0 mm 7 m/s 761 mmHg 47%
23:00 +26°C° 0 mm 6 m/s 761 mmHg 49%

19 Junho, Sábado

Tempo Temperatura Precipitação Vento Pressão Humidade
00:00 +24°C° 0 mm 6 m/s 761 mmHg 50%
01:00 +25°C° 0 mm 5 m/s 761 mmHg 52%
02:00 +23°C° 0 mm 4 m/s 761 mmHg 53%
03:00 +23°C° 0 mm 4 m/s 761 mmHg 55%
04:00 +23°C° 0 mm 4 m/s 761 mmHg 56%
05:00 +23°C° 0 mm 4 m/s 761 mmHg 53%
06:00 +25°C° 0 mm 4 m/s 761 mmHg 50%
07:00 +26°C° 0 mm 4 m/s 762 mmHg 47%
08:00 +28°C° 0 mm 4 m/s 761 mmHg 42%
09:00 +29°C° 0 mm 4 m/s 761 mmHg 37%
10:00 +32°C° 0 mm 4 m/s 761 mmHg 32%
11:00 +32°C° 0 mm 5 m/s 761 mmHg 33%
12:00 +33°C° 0 mm 6 m/s 761 mmHg 35%
13:00 +33°C° 0 mm 7 m/s 760 mmHg 36%
14:00 +32°C° 0 mm 8 m/s 760 mmHg 40%
15:00 +32°C° 0 mm 9 m/s 760 mmHg 43%
16:00 +31°C° 0 mm 9 m/s 760 mmHg 47%
17:00 +29°C° 0 mm 9 m/s 760 mmHg 52%
18:00 +28°C° 0 mm 9 m/s 760 mmHg 57%
19:00 +27°C° 0 mm 8 m/s 760 mmHg 62%
20:00 +27°C° 0 mm 7 m/s 760 mmHg 64%
21:00 +26°C° 0 mm 7 m/s 760 mmHg 65%
22:00 +26°C° 0 mm 6 m/s 760 mmHg 66%
23:00 +26°C° 0 mm 5 m/s 760 mmHg 68%

20 Junho, Domingo

Tempo Temperatura Precipitação Vento Pressão Humidade
00:00 +25°C° 0 mm 4 m/s 760 mmHg 69%
01:00 +25°C° 0 mm 4 m/s 760 mmHg 71%
02:00 +25°C° 0 mm 3 m/s 760 mmHg 72%
03:00 +24°C° 0 mm 3 m/s 760 mmHg 73%
04:00 +24°C° 0 mm 3 m/s 760 mmHg 75%
05:00 +25°C° 0 mm 3 m/s 760 mmHg 70%
06:00 +26°C° 0 mm 3 m/s 760 mmHg 65%
07:00 +27°C° 0 mm 3 m/s 760 mmHg 61%
08:00 +28°C° 0 mm 3 m/s 760 mmHg 54%
09:00 +30°C° 0 mm 3 m/s 760 mmHg 47%
10:00 +31°C° 0 mm 3 m/s 760 mmHg 40%
11:00 +33°C° 0 mm 4 m/s 759 mmHg 40%
12:00 +33°C° 0 mm 5 m/s 759 mmHg 41%
13:00 +33°C° 0 mm 7 m/s 759 mmHg 41%
14:00 +33°C° 0 mm 7 m/s 759 mmHg 43%
15:00 +32°C° 0 mm 7 m/s 759 mmHg 46%
16:00 +31°C° 0 mm 8 m/s 759 mmHg 48%
17:00 +29°C° 0 mm 7 m/s 759 mmHg 53%
18:00 +28°C° 0 mm 7 m/s 759 mmHg 58%
19:00 +27°C° 0 mm 6 m/s 759 mmHg 63%
20:00 +27°C° 0 mm 6 m/s 759 mmHg 63%
21:00 +27°C° 0 mm 5 m/s 759 mmHg 63%
22:00 +27°C° 0 mm 5 m/s 759 mmHg 63%
23:00 +27°C° 0 mm 4 m/s 759 mmHg 62%
Mostrar mais